QPF
0.00 0.00 0.00 0.00 0.00 0.00 0.00 0.00 0.00 0.00 0.00 0.00 0.00 0.00 0.00 0.00 0.00 0.00 0.00 0.00 0.00 0.00 0.00 0.00 0.00 0.00 0.00 0.00 0.00 0.00 0.00 0.00 0.00 0.00 0.00 0.00 0.00 0.00 0.00 0.00 0.00 0.00 0.00 0.00
0.00 0.00 0.00 0.00 0.00 0.00 0.00 0.00 0.00 0.00 0.00 0.00 0.00 0.00 0.00 0.00 0.00 0.00 0.00 0.00 0.00 0.00 0.00 0.00 0.00 0.00 0.00 0.00 0.00 0.00 0.00 0.00 0.00 0.00 0.00 0.00 0.00 0.00 0.00 0.00 0.00 0.00 0.00 0.00
0.00 0.00 0.00 0.00 0.00 0.00 0.00 0.00 0.00 0.00 0.00 0.00 0.00 0.00 0.00 0.00 0.00 0.00 0.00 0.00 0.00 0.00 0.00 0.00 0.00 0.00 0.00 0.00 0.00 0.00 0.00 0.00 0.00 0.00 0.00 0.00 0.00 0.00 0.00 0.00 0.00 0.00 0.00 0.00
0.00 0.00 0.00 0.00 0.00 0.00 0.00 0.00 0.00 0.00 0.00 0.00 0.00 0.00 0.00 0.00 0.00 0.00 0.00 0.00 0.00 0.00 0.00 0.00 0.00 0.00 0.00 0.00 0.00 0.00 0.00 0.00 0.00 0.00 0.00 0.00 0.00 0.00 0.00 0.01 0.00 0.00 0.00 0.00
0.00 0.00 0.00 0.00 0.00 0.00 0.00 0.00 0.00 0.00 0.00 0.00 0.00 0.00 0.00 0.00 0.00 0.00 0.00 0.00 0.00 0.00 0.00 0.00 0.00 0.00 0.00 0.00 0.00 0.00 0.00 0.00 0.00 0.00 0.00 0.00 0.00 0.00 0.01 0.01 0.01 0.01 0.01 0.01
0.00 0.00 0.00 0.00 0.00 0.00 0.00 0.00 0.00 0.00 0.00 0.00 0.00 0.00 0.00 0.00 0.00 0.00 0.00 0.00 0.00 0.00 0.00 0.00 0.00 0.00 0.00 0.00 0.00 0.00 0.00 0.00 0.00 0.00 0.00 0.00 0.00 0.01 0.01 0.01 0.01 0.01 0.01 0.01
0.00 0.00 0.00 0.00 0.00 0.00 0.00 0.00 0.00 0.00 0.00 0.00 0.00 0.00 0.00 0.00 0.00 0.00 0.00 0.00 0.00 0.00 0.00 0.00 0.00 0.00 0.00 0.00 0.00 0.00 0.00 0.00 0.00 0.00 0.00 0.00 0.01 0.01 0.01 0.01 0.01 0.01 0.01 0.00
0.00 0.00 0.00 0.00 0.00 0.00 0.00 0.00 0.00 0.00 0.00 0.00 0.00 0.00 0.00 0.00 0.00 0.00 0.00 0.00 0.00 0.00 0.00 0.00 0.00 0.00 0.00 0.00 0.00 0.00 0.00 0.00 0.00 0.00 0.00 0.01 0.01 0.01 0.01 0.01 0.01 0.01 0.01 0.00
0.00 0.00 0.00 0.00 0.00 0.00 0.00 0.00 0.00 0.00 0.00 0.00 0.00 0.00 0.00 0.00 0.00 0.00 0.00 0.00 0.00 0.00 0.00 0.00 0.00 0.00 0.00 0.00 0.00 0.00 0.00 0.00 0.00 0.00 0.00 0.01 0.01 0.01 0.01 0.01 0.01 0.01 0.01 0.00
0.00 0.00 0.00 0.00 0.00 0.00 0.00 0.00 0.00 0.00 0.00 0.00 0.00 0.00 0.00 0.00 0.00 0.00 0.00 0.00 0.00 0.00 0.00 0.00 0.00 0.00 0.00 0.00 0.00 0.00 0.00 0.00 0.00 0.00 0.01 0.01 0.01 0.01 0.01 0.01 0.01 0.01 0.01 0.00
0.00 0.00 0.00 0.00 0.00 0.00 0.00 0.00 0.00 0.00 0.00 0.00 0.00 0.00 0.00 0.00 0.00 0.00 0.00 0.00 0.00 0.00 0.00 0.00 0.00 0.00 0.00 0.00 0.00 0.00 0.00 0.00 0.00 0.00 0.01 0.01 0.01 0.01 0.01 0.01 0.01 0.01 0.01 0.00
0.00 0.00 0.00 0.00 0.00 0.00 0.00 0.00 0.00 0.00 0.00 0.00 0.00 0.00 0.00 0.00 0.00 0.00 0.00 0.00 0.00 0.00 0.00 0.00 0.00 0.00 0.00 0.00 0.00 0.00 0.00 0.00 0.00 0.00 0.01 0.01 0.01 0.01 0.01 0.01 0.01 0.01 0.01 0.00
0.00 0.00 0.00 0.00 0.00 0.00 0.00 0.00 0.00 0.00 0.00 0.00 0.00 0.00 0.00 0.00 0.00 0.00 0.00 0.00 0.00 0.00 0.00 0.00 0.00 0.00 0.00 0.00 0.00 0.00 0.00 0.00 0.00 0.00 0.01 0.01 0.01 0.01 0.01 0.01 0.01 0.01 0.01 0.01
0.00 0.00 0.00 0.00 0.00 0.00 0.00 0.00 0.00 0.00 0.00 0.00 0.00 0.00 0.00 0.00 0.00 0.00 0.00 0.00 0.00 0.00 0.00 0.00 0.00 0.00 0.00 0.00 0.00 0.00 0.00 0.00 0.00 0.00 0.01 0.01 0.01 0.01 0.01 0.01 0.01 0.01 0.01 0.00
0.00 0.00 0.00 0.00 0.00 0.00 0.00 0.00 0.00 0.00 0.00 0.00 0.00 0.00 0.00 0.00 0.00 0.00 0.00 0.00 0.00 0.00 0.00 0.00 0.00 0.00 0.00 0.00 0.00 0.00 0.00 0.00 0.00 0.01 0.01 0.01 0.01 0.01 0.01 0.01 0.01 0.01 0.01 0.01
0.00 0.00 0.00 0.00 0.00 0.00 0.00 0.00 0.00 0.00 0.00 0.00 0.00 0.00 0.00 0.00 0.00 0.00 0.00 0.00 0.00 0.00 0.00 0.00 0.00 0.00 0.00 0.00 0.00 0.00 0.00 0.00 0.00 0.00 0.01 0.01 0.01 0.01 0.01 0.01 0.01 0.01 0.01 0.01
0.00 0.00 0.00 0.00 0.00 0.00 0.00 0.00 0.00 0.00 0.00 0.00 0.00 0.00 0.00 0.00 0.00 0.00 0.00 0.00 0.00 0.00 0.00 0.00 0.00 0.00 0.00 0.00 0.00 0.00 0.00 0.00 0.00 0.00 0.01 0.01 0.01 0.01 0.01 0.01 0.01 0.01 0.01 0.01
0.00 0.00 0.00 0.00 0.00 0.00 0.00 0.00 0.00 0.00 0.00 0.00 0.00 0.00 0.00 0.00 0.00 0.00 0.00 0.00 0.00 0.00 0.00 0.00 0.00 0.00 0.00 0.00 0.00 0.00 0.00 0.00 0.00 0.00 0.01 0.01 0.01 0.01 0.01 0.01 0.02 0.02 0.01 0.01
0.00 0.00 0.00 0.00 0.00 0.00 0.00 0.00 0.00 0.00 0.00 0.00 0.00 0.00 0.00 0.00 0.00 0.00 0.00 0.00 0.00 0.00 0.00 0.00 0.00 0.00 0.00 0.00 0.00 0.00 0.00 0.01 0.01 0.01 0.01 0.01 0.02 0.02 0.02 0.02 0.02 0.02 0.01 0.01
0.00 0.00 0.00 0.00 0.00 0.00 0.00 0.00 0.00 0.00 0.00 0.00 0.00 0.00 0.00 0.00 0.00 0.00 0.00 0.00 0.00 0.00 0.00 0.00 0.00 0.00 0.01 0.01 0.01 0.01 0.01 0.01 0.01 0.01 0.01 0.02 0.02 0.02 0.03 0.02 0.02 0.02 0.01 0.01
0.00 0.00 0.00 0.00 0.00 0.00 0.00 0.00 0.00 0.00 0.00 0.00 0.00 0.00 0.00 0.00 0.00 0.00 0.00 0.00 0.00 0.00 0.00 0.00 0.01 0.01 0.01 0.01 0.01 0.01 0.01 0.01 0.01 0.02 0.02 0.03 0.03 0.03 0.03 0.03 0.02 0.02 0.01 0.01
0.00 0.00 0.00 0.00 0.00 0.00 0.00 0.00 0.00 0.00 0.00 0.00 0.00 0.00 0.00 0.00 0.00 0.00 0.00 0.00 0.00 0.00 0.00 0.00 0.01 0.01 0.01 0.01 0.01 0.01 0.01 0.02 0.02 0.02 0.03 0.03 0.04 0.04 0.03 0.03 0.02 0.02 0.01 0.01
0.00 0.00 0.00 0.00 0.00 0.00 0.00 0.00 0.00 0.00 0.00 0.00 0.00 0.00 0.00 0.00 0.00 0.00 0.00 0.00 0.00 0.00 0.01 0.01 0.01 0.01 0.01 0.01 0.01 0.02 0.02 0.02 0.03 0.03 0.04 0.04 0.04 0.04 0.03 0.03 0.02 0.02 0.01 0.01
0.00 0.00 0.00 0.00 0.00 0.00 0.00 0.00 0.00 0.00 0.00 0.00 0.00 0.00 0.00 0.00 0.00 0.00 0.00 0.00 0.01 0.01 0.01 0.01 0.01 0.02 0.02 0.02 0.02 0.02 0.03 0.03 0.04 0.04 0.04 0.04 0.04 0.04 0.03 0.03 0.02 0.02 0.01 0.01
0.00 0.00 0.00 0.00 0.00 0.00 0.00 0.00 0.00 0.00 0.00 0.00 0.00 0.00 0.00 0.00 0.00 0.00 0.00 0.00 0.01 0.02 0.01 0.01 0.01 0.02 0.02 0.02 0.03 0.03 0.04 0.04 0.05 0.05 0.05 0.05 0.04 0.04 0.03 0.02 0.02 0.02 0.01 0.01
0.00 0.00 0.00 0.00 0.00 0.00 0.00 0.00 0.00 0.00 0.00 0.00 0.00 0.00 0.00 0.00 0.00 0.00 0.01 0.01 0.01 0.02 0.01 0.01 0.01 0.02 0.02 0.03 0.04 0.05 0.05 0.05 0.05 0.05 0.05 0.05 0.04 0.03 0.03 0.02 0.02 0.01 0.01 0.01
0.00 0.00 0.00 0.00 0.00 0.00 0.00 0.00 0.00 0.00 0.00 0.00 0.00 0.00 0.00 0.00 0.00 0.00 0.01 0.01 0.01 0.01 0.01 0.01 0.02 0.02 0.03 0.03 0.04 0.04 0.05 0.05 0.05 0.05 0.05 0.05 0.04 0.03 0.02 0.02 0.02 0.01 0.01 0.01
MSLP
1020.99 1020.93 1020.77 1020.49 1020.06 1019.47 1018.72 1017.80 1016.75 1015.62 1014.45 1013.31 1012.26 1011.33 1010.55 1009.92 1009.43 1009.04 1008.73 1008.47 1008.24 1008.03 1007.84 1007.69 1007.62 1007.62 1007.71 1007.89 1008.15 1008.45 1008.78 1009.12 1009.44 1009.76 1010.09 1010.44 1010.84 1011.30 1011.85 1012.46 1013.13 1013.81 1014.48 1015.08
1020.89 1020.65 1020.26 1019.73 1019.05 1018.25 1017.35 1016.36 1015.33 1014.30 1013.31 1012.39 1011.57 1010.85 1010.25 1009.73 1009.27 1008.85 1008.45 1008.06 1007.67 1007.31 1006.99 1006.74 1006.59 1006.53 1006.58 1006.73 1006.95 1007.21 1007.48 1007.75 1008.01 1008.26 1008.52 1008.82 1009.19 1009.64 1010.19 1010.81 1011.50 1012.22 1012.92 1013.57
1020.76 1020.33 1019.72 1018.96 1018.08 1017.10 1016.09 1015.06 1014.08 1013.17 1012.35 1011.64 1011.03 1010.50 1010.03 1009.59 1009.15 1008.68 1008.18 1007.65 1007.12 1006.61 1006.17 1005.81 1005.56 1005.44 1005.44 1005.54 1005.70 1005.91 1006.12 1006.33 1006.52 1006.72 1006.94 1007.22 1007.58 1008.04 1008.60 1009.26 1009.99 1010.74 1011.49 1012.18
1020.57 1019.95 1019.16 1018.21 1017.17 1016.07 1015.00 1013.98 1013.07 1012.28 1011.63 1011.10 1010.67 1010.29 1009.92 1009.53 1009.07 1008.54 1007.94 1007.29 1006.63 1005.99 1005.42 1004.96 1004.63 1004.44 1004.37 1004.41 1004.51 1004.65 1004.79 1004.94 1005.08 1005.24 1005.45 1005.72 1006.10 1006.59 1007.19 1007.90 1008.67 1009.47 1010.25 1010.97
1020.25 1019.48 1018.53 1017.46 1016.31 1015.17 1014.09 1013.12 1012.30 1011.64 1011.13 1010.76 1010.46 1010.19 1009.89 1009.51 1009.03 1008.45 1007.76 1007.00 1006.23 1005.48 1004.82 1004.27 1003.86 1003.59 1003.45 1003.41 1003.43 1003.49 1003.57 1003.66 1003.76 1003.90 1004.11 1004.41 1004.82 1005.37 1006.03 1006.78 1007.60 1008.44 1009.24 1009.96
1019.72 1018.84 1017.80 1016.67 1015.50 1014.37 1013.34 1012.45 1011.74 1011.21 1010.83 1010.57 1010.37 1010.16 1009.89 1009.52 1009.01 1008.37 1007.61 1006.79 1005.94 1005.12 1004.38 1003.77 1003.29 1002.94 1002.72 1002.59 1002.53 1002.51 1002.51 1002.54 1002.61 1002.74 1002.96 1003.30 1003.77 1004.37 1005.09 1005.89 1006.74 1007.59 1008.39 1009.09
1018.93 1017.99 1016.94 1015.81 1014.69 1013.64 1012.71 1011.94 1011.35 1010.93 1010.65 1010.47 1010.33 1010.15 1009.89 1009.50 1008.97 1008.29 1007.50 1006.63 1005.74 1004.89 1004.11 1003.45 1002.91 1002.49 1002.18 1001.96 1001.81 1001.70 1001.62 1001.60 1001.64 1001.76 1002.00 1002.38 1002.90 1003.55 1004.31 1005.15 1006.01 1006.85 1007.62 1008.27
1017.89 1016.96 1015.95 1014.91 1013.90 1012.98 1012.19 1011.55 1011.08 1010.76 1010.55 1010.42 1010.30 1010.12 1009.85 1009.44 1008.88 1008.19 1007.39 1006.52 1005.62 1004.77 1003.97 1003.28 1002.69 1002.21 1001.81 1001.50 1001.24 1001.04 1000.89 1000.81 1000.82 1000.93 1001.19 1001.60 1002.15 1002.84 1003.62 1004.46 1005.30 1006.10 1006.81 1007.41
1016.65 1015.78 1014.89 1014.00 1013.15 1012.40 1011.77 1011.27 1010.91 1010.66 1010.50 1010.38 1010.25 1010.05 1009.75 1009.31 1008.75 1008.05 1007.26 1006.41 1005.55 1004.71 1003.92 1003.21 1002.58 1002.03 1001.55 1001.14 1000.79 1000.49 1000.27 1000.13 1000.11 1000.21 1000.47 1000.89 1001.46 1002.15 1002.92 1003.73 1004.52 1005.26 1005.89 1006.41
1015.33 1014.59 1013.85 1013.15 1012.50 1011.93 1011.46 1011.09 1010.82 1010.63 1010.48 1010.34 1010.17 1009.93 1009.58 1009.13 1008.55 1007.87 1007.11 1006.30 1005.47 1004.66 1003.88 1003.16 1002.49 1001.88 1001.33 1000.83 1000.38 1000.00 999.71 999.52 999.46 999.55 999.81 1000.22 1000.77 1001.43 1002.16 1002.90 1003.62 1004.27 1004.82 1005.26
1014.08 1013.51 1012.96 1012.47 1012.02 1011.63 1011.31 1011.04 1010.83 1010.65 1010.48 1010.29 1010.06 1009.75 1009.36 1008.88 1008.29 1007.63 1006.91 1006.14 1005.36 1004.57 1003.81 1003.08 1002.37 1001.71 1001.08 1000.50 999.97 999.53 999.17 998.94 998.86 998.93 999.17 999.55 1000.07 1000.67 1001.32 1001.98 1002.60 1003.15 1003.61 1003.98
1013.06 1012.67 1012.33 1012.03 1011.76 1011.52 1011.31 1011.11 1010.91 1010.71 1010.49 1010.23 1009.91 1009.54 1009.09 1008.57 1007.99 1007.34 1006.65 1005.92 1005.17 1004.41 1003.65 1002.90 1002.16 1001.44 1000.75 1000.10 999.52 999.03 998.64 998.39 998.29 998.34 998.56 998.91 999.37 999.90 1000.46 1001.01 1001.51 1001.96 1002.34 1002.66
1012.37 1012.16 1011.99 1011.86 1011.73 1011.60 1011.45 1011.27 1011.05 1010.79 1010.49 1010.14 1009.73 1009.28 1008.77 1008.22 1007.62 1006.98 1006.31 1005.61 1004.88 1004.13 1003.37 1002.59 1001.82 1001.05 1000.32 999.63 999.01 998.50 998.10 997.85 997.75 997.80 998.00 998.31 998.71 999.16 999.61 1000.05 1000.45 1000.80 1001.10 1001.38
1012.04 1011.98 1011.95 1011.94 1011.91 1011.83 1011.69 1011.48 1011.20 1010.86 1010.45 1010.00 1009.50 1008.97 1008.40 1007.81 1007.20 1006.56 1005.90 1005.20 1004.48 1003.72 1002.94 1002.14 1001.34 1000.54 999.77 999.06 998.44 997.93 997.56 997.33 997.25 997.31 997.50 997.78 998.13 998.49 998.85 999.18 999.48 999.74 999.98 1000.24
1012.03 1012.08 1012.15 1012.20 1012.20 1012.12 1011.94 1011.67 1011.30 1010.86 1010.35 1009.79 1009.20 1008.59 1007.97 1007.35 1006.71 1006.06 1005.39 1004.69 1003.96 1003.18 1002.38 1001.55 1000.71 999.89 999.12 998.41 997.81 997.34 997.01 996.82 996.78 996.87 997.06 997.32 997.61 997.91 998.19 998.43 998.65 998.84 999.04 999.29
1012.24 1012.35 1012.46 1012.53 1012.51 1012.38 1012.14 1011.77 1011.31 1010.75 1010.14 1009.49 1008.81 1008.14 1007.47 1006.81 1006.15 1005.48 1004.79 1004.07 1003.31 1002.51 1001.67 1000.81 999.96 999.13 998.36 997.69 997.13 996.70 996.43 996.30 996.31 996.43 996.64 996.89 997.15 997.40 997.61 997.79 997.95 998.10 998.29 998.53
1012.53 1012.67 1012.78 1012.82 1012.74 1012.54 1012.20 1011.74 1011.17 1010.51 1009.81 1009.07 1008.33 1007.61 1006.90 1006.20 1005.51 1004.81 1004.09 1003.34 1002.54 1001.70 1000.84 999.96 999.09 998.27 997.52 996.88 996.38 996.02 995.81 995.75 995.81 995.97 996.19 996.44 996.69 996.90 997.08 997.23 997.36 997.49 997.68 997.94
1012.79 1012.92 1012.99 1012.97 1012.81 1012.52 1012.08 1011.52 1010.86 1010.12 1009.34 1008.55 1007.76 1007.00 1006.25 1005.52 1004.80 1004.06 1003.30 1002.51 1001.67 1000.80 999.90 999.00 998.13 997.32 996.60 996.01 995.56 995.27 995.13 995.13 995.24 995.44 995.68 995.93 996.17 996.38 996.55 996.69 996.82 996.97 997.18 997.47
1012.92 1013.01 1013.02 1012.92 1012.68 1012.29 1011.77 1011.13 1010.40 1009.60 1008.77 1007.94 1007.12 1006.32 1005.55 1004.78 1004.02 1003.24 1002.44 1001.60 1000.72 999.80 998.88 997.97 997.10 996.31 995.63 995.09 994.69 994.46 994.38 994.42 994.58 994.80 995.06 995.33 995.58 995.79 995.98 996.14 996.30 996.49 996.75 997.09
1012.88 1012.91 1012.84 1012.66 1012.33 1011.87 1011.28 1010.58 1009.81 1008.98 1008.13 1007.27 1006.43 1005.61 1004.81 1004.01 1003.20 1002.38 1001.52 1000.63 999.71 998.77 997.82 996.91 996.05 995.29 994.65 994.15 993.81 993.62 993.58 993.66 993.84 994.08 994.36 994.64 994.91 995.15 995.37 995.57 995.79 996.05 996.37 996.77
1012.66 1012.62 1012.48 1012.21 1011.82 1011.29 1010.66 1009.93 1009.13 1008.29 1007.44 1006.58 1005.73 1004.89 1004.05 1003.21 1002.37 1001.49 1000.59 999.65 998.70 997.73 996.78 995.87 995.04 994.31 993.70 993.25 992.95 992.80 992.79 992.89 993.09 993.34 993.63 993.93 994.21 994.49 994.76 995.04 995.33 995.66 996.06 996.52
1012.30 1012.19 1011.97 1011.63 1011.18 1010.61 1009.95 1009.21 1008.42 1007.59 1006.73 1005.88 1005.02 1004.16 1003.30 1002.43 1001.54 1000.62 999.67 998.70 997.72 996.75 995.81 994.93 994.13 993.44 992.88 992.47 992.20 992.08 992.09 992.20 992.40 992.66 992.95 993.27 993.59 993.91 994.24 994.59 994.97 995.38 995.85 996.38
1011.85 1011.65 1011.36 1010.96 1010.47 1009.88 1009.21 1008.47 1007.69 1006.87 1006.04 1005.19 1004.33 1003.45 1002.57 1001.67 1000.74 999.78 998.81 997.83 996.84 995.89 994.97 994.13 993.38 992.74 992.24 991.87 991.64 991.54 991.56 991.68 991.88 992.13 992.43 992.76 993.12 993.49 993.88 994.30 994.76 995.25 995.79 996.37
1011.34 1011.06 1010.70 1010.25 1009.72 1009.11 1008.45 1007.72 1006.96 1006.17 1005.35 1004.51 1003.65 1002.77 1001.86 1000.94 999.99 999.02 998.04 997.06 996.10 995.18 994.32 993.54 992.86 992.29 991.84 991.53 991.34 991.26 991.29 991.41 991.60 991.85 992.16 992.50 992.88 993.29 993.74 994.23 994.75 995.31 995.90 996.51
1010.79 1010.43 1010.01 1009.52 1008.96 1008.35 1007.69 1006.99 1006.25 1005.47 1004.67 1003.84 1002.98 1002.10 1001.19 1000.25 999.30 998.34 997.38 996.43 995.53 994.67 993.89 993.20 992.60 992.11 991.74 991.48 991.33 991.28 991.32 991.44 991.62 991.86 992.16 992.51 992.91 993.35 993.84 994.37 994.94 995.54 996.16 996.78
1010.21 1009.79 1009.31 1008.79 1008.22 1007.60 1006.95 1006.26 1005.54 1004.78 1003.99 1003.18 1002.32 1001.44 1000.54 999.61 998.68 997.75 996.84 995.96 995.14 994.38 993.70 993.11 992.61 992.22 991.93 991.73 991.63 991.60 991.65 991.76 991.94 992.17 992.45 992.80 993.20 993.65 994.16 994.71 995.30 995.91 996.53 997.13
1009.60 1009.13 1008.62 1008.07 1007.49 1006.87 1006.23 1005.55 1004.84 1004.10 1003.33 1002.51 1001.67 1000.81 999.92 999.02 998.13 997.26 996.42 995.64 994.92 994.27 993.72 993.25 992.87 992.58 992.37 992.24 992.18 992.18 992.23 992.34 992.50 992.71 992.98 993.30 993.69 994.13 994.63 995.18 995.76 996.36 996.95 997.52
Thickness
5607 5611 5602 5601 5610 5607 5597 5600 5596 5616 5620 5639 5644 5639 5635 5632 5629 5626 5627 5626 5624 5621 5620 5616 5609 5602 5594 5587 5578 5567 5556 5547 5539 5528 5514 5501 5488 5475 5461 5447 5434 5419 5405 5391
5598 5605 5596 5593 5612 5614 5607 5602 5602 5609 5616 5637 5631 5622 5619 5618 5615 5614 5616 5617 5616 5614 5612 5610 5605 5599 5591 5584 5574 5561 5552 5545 5534 5521 5509 5497 5485 5471 5457 5443 5429 5415 5402 5389
5584 5591 5591 5597 5620 5617 5609 5605 5603 5603 5616 5622 5615 5615 5612 5609 5606 5604 5605 5606 5606 5606 5605 5604 5600 5594 5587 5579 5568 5556 5547 5538 5527 5515 5504 5493 5480 5466 5453 5440 5426 5412 5399 5386
5561 5577 5578 5617 5626 5618 5609 5610 5605 5604 5608 5606 5603 5603 5600 5597 5595 5596 5597 5598 5598 5598 5597 5596 5592 5585 5577 5569 5558 5549 5540 5531 5521 5510 5499 5487 5473 5462 5450 5436 5423 5410 5396 5383
5549 5556 5574 5598 5614 5607 5598 5601 5607 5597 5596 5594 5591 5588 5593 5596 5592 5589 5588 5587 5587 5586 5583 5582 5579 5572 5563 5556 5547 5538 5533 5525 5516 5504 5493 5481 5470 5459 5446 5431 5418 5404 5392 5379
5540 5540 5560 5598 5607 5601 5593 5587 5600 5591 5586 5582 5576 5569 5583 5589 5585 5582 5581 5579 5576 5574 5571 5568 5566 5557 5548 5544 5536 5532 5528 5520 5509 5498 5487 5477 5466 5453 5440 5427 5414 5400 5387 5375
5537 5532 5565 5591 5590 5586 5573 5581 5588 5582 5576 5571 5562 5561 5569 5572 5570 5568 5566 5564 5562 5559 5556 5554 5550 5541 5535 5533 5531 5528 5520 5511 5501 5491 5481 5471 5459 5446 5433 5420 5408 5395 5382 5371
5528 5525 5558 5586 5575 5571 5575 5577 5571 5568 5564 5559 5557 5557 5556 5556 5554 5552 5551 5550 5547 5543 5542 5540 5534 5527 5524 5525 5525 5518 5510 5502 5494 5485 5474 5464 5450 5438 5425 5413 5400 5388 5376 5365
5550 5571 5581 5574 5572 5570 5563 5559 5558 5554 5553 5548 5545 5544 5542 5540 5539 5537 5534 5533 5530 5526 5526 5527 5523 5516 5514 5519 5514 5508 5501 5495 5487 5477 5467 5457 5445 5432 5418 5406 5395 5384 5372 5362
5549 5566 5566 5564 5558 5557 5554 5550 5549 5545 5540 5535 5530 5528 5526 5525 5523 5521 5519 5517 5515 5512 5512 5515 5514 5509 5507 5508 5503 5498 5492 5486 5478 5468 5458 5448 5437 5427 5415 5403 5392 5382 5370 5360
5548 5561 5558 5561 5554 5551 5548 5543 5538 5534 5529 5523 5517 5514 5512 5511 5510 5508 5506 5504 5502 5500 5500 5503 5504 5503 5500 5496 5492 5487 5483 5477 5469 5460 5450 5439 5430 5422 5412 5404 5393 5381 5371 5360
5556 5559 5549 5554 5547 5540 5535 5530 5525 5519 5515 5511 5505 5502 5500 5499 5498 5496 5495 5494 5493 5492 5491 5493 5493 5493 5491 5487 5481 5476 5472 5466 5459 5451 5442 5432 5421 5412 5406 5397 5388 5379 5368 5356
5548 5546 5539 5538 5531 5525 5520 5515 5510 5505 5500 5497 5494 5491 5489 5487 5486 5485 5485 5485 5484 5483 5483 5483 5483 5483 5481 5477 5471 5466 5461 5457 5449 5442 5432 5424 5414 5406 5396 5389 5381 5373 5364 5353
5528 5525 5523 5520 5514 5509 5504 5500 5495 5491 5488 5484 5482 5480 5478 5477 5477 5477 5477 5477 5476 5475 5474 5473 5473 5473 5472 5467 5461 5456 5451 5446 5440 5432 5423 5415 5407 5399 5392 5382 5373 5365 5358 5350
5512 5508 5504 5502 5497 5494 5489 5485 5481 5479 5477 5476 5474 5471 5470 5469 5470 5470 5470 5469 5467 5466 5466 5465 5464 5465 5462 5456 5451 5446 5441 5435 5429 5421 5413 5405 5398 5390 5383 5376 5368 5359 5349 5341
5494 5490 5487 5484 5481 5478 5474 5471 5468 5468 5467 5466 5465 5465 5464 5462 5462 5462 5462 5460 5458 5458 5458 5456 5455 5455 5451 5446 5441 5436 5431 5427 5420 5411 5403 5396 5388 5381 5374 5368 5361 5353 5344 5336
5478 5476 5474 5470 5467 5464 5460 5457 5456 5456 5456 5456 5457 5456 5455 5455 5455 5456 5456 5454 5450 5449 5448 5446 5446 5445 5441 5436 5430 5426 5421 5415 5412 5404 5394 5387 5380 5373 5367 5360 5354 5348 5341 5333
5465 5463 5460 5456 5452 5450 5449 5448 5447 5447 5446 5448 5448 5446 5446 5447 5448 5449 5448 5447 5445 5444 5443 5441 5438 5436 5432 5427 5421 5416 5410 5404 5398 5393 5386 5379 5372 5366 5359 5354 5348 5342 5335 5328
5451 5448 5445 5443 5440 5438 5437 5437 5438 5438 5438 5438 5438 5439 5439 5438 5438 5439 5438 5436 5436 5439 5441 5437 5434 5430 5424 5420 5415 5408 5401 5396 5390 5384 5378 5373 5367 5359 5353 5348 5343 5337 5330 5323
5436 5433 5431 5430 5428 5426 5427 5429 5430 5431 5432 5430 5429 5430 5431 5431 5431 5431 5430 5429 5430 5431 5432 5429 5426 5423 5418 5413 5409 5401 5394 5388 5383 5377 5371 5365 5360 5354 5348 5343 5338 5332 5326 5319
5421 5420 5419 5419 5420 5420 5420 5421 5421 5423 5423 5421 5420 5421 5423 5424 5423 5422 5423 5427 5431 5427 5425 5424 5420 5416 5411 5407 5403 5395 5388 5382 5377 5370 5365 5360 5354 5349 5344 5339 5335 5329 5322 5316
5411 5411 5411 5412 5413 5415 5415 5413 5412 5413 5414 5414 5414 5414 5415 5417 5419 5419 5418 5419 5423 5422 5419 5416 5413 5410 5407 5404 5397 5390 5383 5377 5371 5365 5360 5355 5351 5346 5341 5336 5331 5326 5320 5313
5404 5403 5403 5403 5404 5405 5406 5405 5404 5404 5405 5406 5407 5408 5409 5410 5411 5411 5417 5418 5415 5415 5413 5411 5408 5406 5404 5399 5392 5385 5379 5373 5367 5361 5356 5351 5347 5343 5339 5333 5328 5323 5317 5310
5395 5395 5394 5393 5393 5393 5396 5400 5399 5399 5399 5400 5401 5402 5402 5405 5408 5408 5408 5411 5411 5410 5408 5405 5403 5401 5398 5391 5385 5380 5374 5368 5362 5357 5352 5347 5343 5339 5335 5330 5325 5320 5315 5308
5385 5384 5384 5383 5384 5388 5390 5391 5392 5393 5394 5397 5398 5399 5398 5398 5400 5404 5404 5404 5405 5405 5403 5400 5398 5394 5389 5384 5379 5374 5368 5363 5357 5352 5348 5344 5340 5336 5332 5328 5324 5319 5313 5307
5376 5377 5378 5378 5378 5380 5381 5382 5384 5387 5388 5391 5395 5396 5396 5396 5396 5397 5399 5399 5399 5399 5397 5394 5390 5386 5382 5377 5373 5368 5363 5359 5355 5351 5346 5341 5337 5334 5330 5326 5322 5317 5312 5305
5370 5370 5370 5372 5374 5373 5373 5374 5376 5380 5381 5384 5388 5391 5392 5393 5393 5394 5394 5395 5394 5393 5391 5388 5384 5380 5376 5372 5367 5363 5358 5354 5351 5348 5343 5340 5336 5333 5329 5325 5320 5315 5310 5304